Tracking 25949 objects as of 9-Aug-2022
HD Live streaming from Space Station
objects crossing your sky now

STARLINK-4274

Track STARLINK-4274 now!
10-day predictions
STARLINK-4274 is classified as:


NORAD ID: 52865
Int'l Code: 2022-062AM
Perigee: 378.3 km
Apogee: 379.9 km
Inclination: 53.2 °
Period: 92.0 minutes
Semi major axis: 6750 km
RCS: Unknown
Launch date: June 17, 2022
Source: United States (US)
Launch site: AIR FORCE EASTERN TEST RANGE (AFETR)
aabbcc
Your satellite tracking list
Your tracking list is empty




NASA's NSSDC Master Catalog

Two Line Element Set (TLE):
1 52865U 22062AM  22221.25001157 -.01042463  00000-0 -11401-1 0  9998
2 52865  53.2173 144.0504 0001198  83.1782 115.0127 15.65433605  8794
Source of the keplerian elements: AFSPC